Martinsburg, WV

3:47 PM EST on December 11, 2019 (GMT -0500)
Eastern W Va Regional-Shepherd

Weather History for KMRB - October, 2019

Change the Weather History Date:

Monday, October 7, 2019

  Actual Average Record
Temperature  
Mean Temperature 64 °F 57 °F  
Max Temperature 72 °F 68 °F 93 °F (1941)
Min Temperature 55 °F 45 °F 30 °F (1958)
Degree Days  
Heating Degree Days 2 9  
Month to date heating degree days 18 54  
Since 1 July heating degree days 30 145  
Cooling Degree Days 0 1  
Month to date cooling degree days 37 7  
Year to date cooling degree days 1280 892  
Growing Degree Days 14 (Base 50)    
Moisture  
Dew Point 60 °F    
Average Humidity 92    
Maximum Humidity 97    
Minimum Humidity 79    
Precipitation  
Precipitation 0.72 in 0.11 in 2.19 in (2005)
Month to date precipitation 0.98 0.70  
Year to date precipitation 35.88 30.51  
Sea Level Pressure  
Sea Level Pressure 30.12 in    
Wind  
Wind Speed 5 mph ()    
Max Wind Speed 16 mph    
Max Gust Speed 23 mph    
Visibility 6.3 miles    
Events Rain    
T = Trace of Precipitation, MM = Missing Value Source: Averaged Metar Reports

Daily Weather History Graph

Daily Weather History Graph

Search for Another Location

Airport or City:

Astronomy

Oct. 07, 2019 Rise Set
Actual Time 7:13 AM EDT 6:45 PM EDT
Civil Twilight 6:46 AM EDT 7:12 PM EDT
Nautical Twilight 6:15 AM EDT 7:43 PM EDT
Astronomical Twilight 5:44 AM EDT 8:14 PM EDT
Moon 4:03 PM EDT (10/7) 1:06 AM EDT (10/7)
Length of Visible Light 12h 25m
Length of Day
11h 31m
Waxing Gibbous, 69% of the Moon is Illuminated
Oct 7
Waxing Gibbous
Oct 13
Full
Oct 21
Last Quarter
Oct 27
New
Nov 4
First Quarter

Hourly Weather History & Observations

Time (EDT) Temp. Dew Point Humidity Pressure Visibility Wind Dir Wind Speed Gust Speed Precip Events Conditions
12:53 AM 64.0 °F 61.0 °F 90% 30.14 in 10.0 mi Calm Calm - N/A   Partly Cloudy
1:53 AM 64.0 °F 61.0 °F 90% 30.12 in 10.0 mi South 3.5 mph - N/A   Mostly Cloudy
2:53 AM 64.0 °F 61.0 °F 90% 30.11 in 10.0 mi Calm Calm - N/A   Clear
3:53 AM 62.1 °F 60.1 °F 93% 30.09 in 10.0 mi Calm Calm - N/A   Mostly Cloudy
4:53 AM 64.9 °F 61.0 °F 87% 30.09 in 10.0 mi South 4.6 mph - N/A   Overcast
5:53 AM 64.0 °F 61.0 °F 90% 30.09 in 10.0 mi South 4.6 mph - 0.01 in   Overcast
6:53 AM 64.0 °F 62.1 °F 93% 30.11 in 10.0 mi SE 8.1 mph - N/A   Overcast
7:53 AM 64.9 °F 62.1 °F 90% 30.12 in 10.0 mi Calm Calm - N/A   Overcast
8:53 AM 66.0 °F 62.1 °F 87% 30.12 in 10.0 mi SSW 3.5 mph - N/A   Overcast
9:53 AM 66.0 °F 63.0 °F 90% 30.11 in 8.0 mi SSE 8.1 mph - 0.00 in Rain Light Rain
10:53 AM 66.9 °F 64.0 °F 90% 30.11 in 6.0 mi Calm Calm - 0.04 in Rain Light Rain
11:53 AM 68.0 °F 64.9 °F 90% 30.10 in 10.0 mi SSW 3.5 mph - 0.00 in   Overcast
12:53 PM 69.1 °F 64.9 °F 87% 30.09 in 10.0 mi Calm Calm - 0.00 in   Overcast
1:53 PM 71.1 °F 64.9 °F 81% 30.06 in 10.0 mi South 3.5 mph - N/A   Overcast
2:53 PM 71.1 °F 64.9 °F 81% 30.06 in 8.0 mi SW 4.6 mph - 0.00 in Rain Light Rain
3:00 PM 70.0 °F 64.0 °F 81% 30.06 in 6.0 mi SW 4.6 mph - 0.01 in Rain Light Rain
3:10 PM 69.1 °F 64.9 °F 87% 30.06 in 2.5 mi South 3.5 mph - 0.02 in Rain Rain
3:34 PM 68.0 °F 66.0 °F 93% 30.07 in 8.0 mi SW 3.5 mph - 0.05 in Rain Light Rain
3:53 PM 68.0 °F 64.9 °F 90% 30.06 in 4.0 mi SW 5.8 mph - 0.07 in Rain Light Rain
4:00 PM 66.9 °F 64.9 °F 93% 30.07 in 1.8 mi SW 4.6 mph - 0.03 in Rain Heavy Rain
4:15 PM 66.9 °F 64.9 °F 93% 30.07 in 2.5 mi WSW 5.8 mph - 0.05 in Rain Light Rain
4:22 PM 66.9 °F 64.9 °F 93% 30.07 in 4.0 mi WSW 4.6 mph - 0.05 in Rain Light Rain
4:37 PM 66.0 °F 64.0 °F 93% 30.08 in 5.0 mi NNW 12.7 mph - 0.06 in Rain Light Rain
4:50 PM 62.6 °F 60.8 °F 94% 30.08 in 3.0 mi North 10.4 mph - 0.08 in Rain Rain
4:53 PM 62.1 °F 59.0 °F 90% 30.07 in 2.5 mi North 12.7 mph - 0.08 in Rain Rain
5:04 PM 61.0 °F 59.0 °F 93% 30.08 in 6.0 mi NNW 10.4 mph - 0.01 in Rain Light Rain
5:13 PM 61.0 °F 57.9 °F 90% 30.09 in 2.5 mi NNW 13.8 mph - 0.01 in Rain Light Rain
5:31 PM 60.1 °F 57.9 °F 93% 30.09 in 4.0 mi North 12.7 mph - 0.03 in Rain Light Rain
5:45 PM 60.1 °F 57.0 °F 90% 30.09 in 2.5 mi North 11.5 mph - 0.04 in Rain Light Rain
5:53 PM 59.0 °F 57.0 °F 93% 30.09 in 2.0 mi North 12.7 mph 23.0 mph 0.04 in Rain Light Rain
6:07 PM 59.0 °F 57.0 °F 93% 30.11 in 2.5 mi NNW 13.8 mph - 0.01 in Rain Light Rain
6:19 PM 57.9 °F 57.0 °F 97% 30.11 in 3.0 mi North 13.8 mph - 0.02 in Rain Light Rain
6:44 PM 57.9 °F 55.9 °F 93% 30.12 in 4.0 mi North 10.4 mph 20.7 mph 0.05 in Rain Light Rain
6:53 PM 57.9 °F 55.9 °F 93% 30.14 in 3.0 mi NNW 9.2 mph - 0.06 in Rain Rain
7:06 PM 57.0 °F 55.9 °F 96% 30.14 in 1.8 mi North 10.4 mph - 0.10 in Rain Heavy Rain
7:19 PM 57.0 °F 55.9 °F 96% 30.14 in 3.0 mi North 9.2 mph - 0.16 in Rain Rain
7:38 PM 57.0 °F 55.9 °F 96% 30.16 in 10.0 mi NNW 5.8 mph - 0.17 in Rain Light Rain
7:46 PM 57.0 °F 55.9 °F 96% 30.17 in 3.0 mi NW 5.8 mph - 0.20 in Rain Heavy Rain
7:53 PM 57.0 °F 55.9 °F 96% 30.16 in 2.0 mi North 9.2 mph - 0.24 in Rain Heavy Rain
8:09 PM 57.0 °F 55.9 °F 96% 30.17 in 3.0 mi North 5.8 mph - 0.06 in Rain Rain
8:22 PM 57.0 °F 55.9 °F 96% 30.17 in 1.8 mi North 4.6 mph - 0.12 in Rain Heavy Rain
8:30 PM 57.0 °F 55.9 °F 96% 30.17 in 3.0 mi North 6.9 mph - 0.15 in Rain Rain
8:46 PM 57.0 °F 55.9 °F 96% 30.17 in 8.0 mi NNE 5.8 mph - 0.16 in Rain Light Rain
8:53 PM 57.0 °F 55.9 °F 96% 30.17 in 9.0 mi North 4.6 mph - 0.17 in Rain Light Rain
9:53 PM 57.0 °F 55.0 °F 93% 30.20 in 10.0 mi NNW 4.6 mph - 0.00 in Rain Light Rain
10:02 PM 57.0 °F 55.0 °F 93% 30.20 in 10.0 mi North 4.6 mph - 0.00 in   Overcast
10:18 PM 57.0 °F 55.0 °F 93% 30.20 in 10.0 mi North 5.8 mph - 0.00 in   Overcast
10:53 PM 57.0 °F 55.0 °F 93% 30.20 in 10.0 mi NNW 8.1 mph - 0.01 in Rain Light Rain
11:01 PM 57.0 °F 55.0 °F 93% 30.21 in 10.0 mi North 5.8 mph - 0.00 in   Overcast
11:53 PM 55.9 °F 53.1 °F 90% 30.20 in 10.0 mi North 10.4 mph - 0.00 in Rain Light Rain